Location: Prairie State College
(41.5244°N, 87.6382°W)
Time: 19:08:59
(UTC-05:00)

ISS - All Passes

Search period start: 29 August 2014 00:00
Search period end: 08 September 2014 00:00
Orbit: 414 x 419 km, 51.6° (Epoch: 29 August)

Date Brightness Start Highest point End Pass type
(mag) Time Alt. Az. Time Alt. Az. Time Alt. Az.
29 Aug - 10:24:26 10° S 10:26:50 19° SE 10:29:14 10° E daylight
29 Aug - 12:00:03 10° WSW 12:03:18 53° NNW 12:06:35 10° NE daylight
29 Aug - 13:38:20 10° NW 13:40:37 17° NNW 13:42:54 10° NNE daylight
29 Aug - 15:16:12 10° NNW 15:18:20 16° N 15:20:28 10° NE daylight
29 Aug - 16:52:34 10° NW 16:55:45 40° NNE 16:58:55 10° E daylight
29 Aug - 18:29:32 10° WNW 18:32:22 26° SW 18:35:12 10° SSE daylight
30 Aug - 09:37:47 10° SE 09:38:33 11° SE 09:39:19 10° ESE daylight
30 Aug - 11:11:29 10° SW 11:14:48 88° NW 11:18:09 10° NE daylight
30 Aug - 12:49:20 10° WNW 12:51:55 20° NNW 12:54:30 10° NNE daylight
30 Aug - 14:27:38 10° NNW 14:29:36 15° N 14:31:33 10° NE daylight
30 Aug - 16:04:12 10° NW 16:07:09 28° NNE 16:10:05 10° E daylight
30 Aug - 17:40:47 10° WNW 17:44:00 45° SW 17:47:12 10° SSE daylight
31 Aug - 10:23:06 10° SW 10:26:20 52° SE 10:29:35 10° ENE daylight
31 Aug - 12:00:22 10° W 12:03:14 26° NNW 12:06:07 10° NE daylight
31 Aug - 13:38:53 10° NW 13:40:49 14° N 13:42:45 10° NNE daylight
31 Aug - 15:15:49 10° NW 15:18:29 21° NNE 15:21:08 10° ENE daylight
31 Aug - 16:52:12 10° NW 16:55:32 82° SW 16:58:52 10° SE daylight
01 Sep - 09:34:58 10° SSW 09:37:54 29° SE 09:40:51 10° ENE daylight
01 Sep - 11:11:27 10° W 11:14:34 36° NNW 11:17:42 10° NE daylight
01 Sep - 12:49:57 10° NW 12:52:01 15° N 12:54:06 10° NNE daylight
01 Sep - 14:27:23 10° NNW 14:29:44 18° NNE 14:32:05 10° ENE daylight
01 Sep - 16:03:41 10° NW 16:07:00 59° NNE 16:10:17 10° ESE daylight
01 Sep - 17:41:13 10° W 17:43:25 17° SW 17:45:36 10° S daylight
02 Sep - 08:47:15 10° S 08:49:30 17° SE 08:51:46 10° E daylight
02 Sep - 10:22:40 10° WSW 10:25:56 57° NNW 10:29:14 10° NE daylight
02 Sep - 12:00:53 10° WNW 12:03:13 17° NNW 12:05:33 10° NNE daylight
02 Sep - 13:38:50 10° NNW 13:40:56 15° N 13:43:01 10° NE daylight
02 Sep - 15:15:13 10° NW 15:18:22 37° NNE 15:21:30 10° E daylight
02 Sep - 16:52:06 10° WNW 16:55:01 28° SW 16:57:55 10° SSE daylight
03 Sep - 09:34:01 10° SW 09:37:20 85° SE 09:40:41 10° NE daylight
03 Sep - 11:11:47 10° WNW 11:14:25 21° NNW 11:17:03 10° NE daylight
03 Sep - 12:50:08 10° NNW 12:52:04 15° N 12:54:01 10° NE daylight
03 Sep - 14:26:45 10° NW 14:29:39 27° NNE 14:32:32 10° E daylight
03 Sep - 16:03:17 10° WNW 16:06:31 50° SW 16:09:45 10° SE daylight
04 Sep - 08:45:34 10° SW 08:48:47 47° SE 08:52:00 10° ENE daylight
04 Sep - 10:22:43 10° W 10:25:38 27° NNW 10:28:33 10° NE daylight
04 Sep - 12:01:14 10° NW 12:03:11 15° N 12:05:08 10° NNE daylight
04 Sep - 13:38:15 10° NW 13:40:51 21° NNE 13:43:27 10° ENE daylight
04 Sep - 15:14:36 10° NW 15:17:57 89° SW 15:21:16 10° SE daylight
04 Sep - 16:53:44 10° WSW 16:54:10 10° SW 16:54:36 10° SW daylight
05 Sep - 07:57:24 10° SSW 08:00:15 27° SE 08:03:07 10° ENE daylight
05 Sep - 09:33:43 10° W 09:36:52 39° NNW 09:40:02 10° NE daylight
05 Sep - 11:12:10 10° NW 11:14:17 16° N 11:16:24 10° NNE daylight
05 Sep - 12:49:41 10° NNW 12:52:00 17° NNE 12:54:18 10° NE daylight
05 Sep - 14:26:00 10° NW 14:29:17 54° NNE 14:32:33 10° ESE daylight
05 Sep - 16:03:23 10° W 16:05:44 18° SW 16:08:04 10° S daylight
06 Sep - 07:09:41 10° S 07:11:45 16° SE 07:13:50 10° E daylight
06 Sep - 08:44:51 10° WSW 08:48:09 62° NNW 08:51:27 10° NE daylight
06 Sep - 10:23:00 10° WNW 10:25:23 18° NNW 10:27:45 10° NNE daylight
06 Sep - 12:01:01 10° NNW 12:03:05 15° N 12:05:08 10° NE daylight
06 Sep - 13:37:25 10° NW 13:40:32 35° NNE 13:43:38 10° E daylight
06 Sep - 15:14:13 10° WNW 15:17:13 31° SW 15:20:11 10° SSE daylight
07 Sep - 07:56:08 10° SW 07:59:27 78° SE 08:02:47 10° ENE daylight
07 Sep - 09:33:48 10° WNW 09:36:29 22° NNW 09:39:10 10° NE daylight
07 Sep - 11:12:11 10° NW 11:14:07 14° N 11:16:03 10° NE daylight
07 Sep - 12:48:51 10° NW 12:51:42 25° NNE 12:54:32 10° E daylight
07 Sep - 14:25:20 10° WNW 14:28:36 55° SW 14:31:52 10° SE daylight
